Regional Weather Roundup
Issued by NWS

Home | Current Version | Previous Version | Graphics & Text | Print | Product List | Glossary On
Versions: 1 2 3 4 5 6 7 8 9 10 11 12 13 14 15 16 17 18 19 20 21 22 23 24 25 26 27 28 29 30 31 32 33 34 35 36 37 38 39 40 41 42 43 44 45 46 47 48 49 50
000
ASUS43 KFSD 242010
RWRSD

WEATHER ROUNDUP FOR SOUTH DAKOTA
NATIONAL WEATHER SERVICE SIOUX FALLS SD
300 PM CDT FRI MAR 24 2017

NOTE: "FAIR" INDICATES FEW OR NO CLOUDS BELOW 12,000 FEET WITH NO
SIGNIFICANT WEATHER AND/OR OBSTRUCTIONS TO VISIBILITY.


SDZ001>005-009-010-012>017-242100-
NORTHWEST AND NORTH CENTRAL SOUTH DAKOTA

CITY           SKY/WX    TMP DP  RH WIND       PRES   REMARKS
BUFFALO          N/A     57  32  38 VRB5      30.03F
FAITH            N/A     58  41  53 NE12      30.08F
MOBRIDGE       SUNNY     56  31  38 VRB7      30.10F
$$

SDZ012>016-024>037-041>051-057-063-072>074-242100-
SOUTHWEST AND SOUTH CENTRAL SOUTH DAKOTA

CITY           SKY/WX    TMP DP  RH WIND       PRES   REMARKS
RAPID CTY ARPT MOSUNNY   60  33  36 N9        30.08F
PIERRE         CLOUDY    58  33  39 N9        30.10S
CUSTER         SUNNY     52  19  27 VRB5      30.09F
ELLSWORTH AFB  MOSUNNY   60  32  35 N8G18     30.08F
PHILIP         MOSUNNY   63  34  33 NE10G21   30.08F
PINE RIDGE     MOSUNNY   59  33  37 NE9       30.09F
SPEARFISH      FAIR      55  25  30 VRB6      30.11S
WINNER         FAIR      57  35  43 NE20G25   30.08F
$$

SDZ004>011-016>023-039-040-242100-
NORTHEAST SOUTH DAKOTA

CITY           SKY/WX    TMP DP  RH WIND       PRES   REMARKS
ABERDEEN       CLOUDY    43  30  60 N13G21    30.16S
WATERTOWN      CLOUDY    37  33  85 NE15      30.12R
BROOKINGS      CLOUDY    37  35  92 N14       30.10F FOG
SISSETON         N/A     43  36  76 N17       30.13S
$$

SDZ017-020-022-023-036>040-048>070-242100-
SOUTHEAST SOUTH DAKOTA

CITY           SKY/WX    TMP DP  RH WIND       PRES   REMARKS
SIOUX FALLS    CLOUDY    42  37  82 N16       30.07F
HURON          CLOUDY    47  36  65 NE9       30.13R
CHAMBERLAIN    CLOUDY    51  38  60 N13       30.10F
MITCHELL       CLOUDY    47  38  71 N14       30.12R
YANKTON        CLOUDY    43  36  75 N13       30.06R
$$

ABBREVIATIONS USED IN REMARKS
   TC - TEMPERATURE IN CELSIUS
  WCI - WIND CHILL INDEX
   HX - HEAT INDEX
  VSB - VISIBILITY





USA.gov is the U.S. government's official web portal to all federal, state and local government web resources and services.